Regional Weather Roundup
Issued by NWS Cleveland, OH

Home | Current Version | Previous Version | Graphics & Text | Print | Product List | Glossary On
Versions: 1 2 3 4 5 6 7 8 9 10 11 12 13 14 15 16 17 18 19 20 21 22 23 24 25 26 27 28 29 30 31 32 33 34 35 36 37 38 39 40 41 42 43 44 45 46 47 48 49 50
442
ASUS41 KCLE 120710
RWRCLE
OHIO REGIONAL WEATHER ROUNDUP
NATIONAL WEATHER SERVICE WILMINGTON, OH
200 AM EST FRI FEB 12 2016

NOTE: "FAIR" INDICATES FEW OR NO CLOUDS BELOW 12,000 FEET WITH NO
SIGNIFICANT WEATHER AND/OR OBSTRUCTIONS TO VISIBILITY.

OHZ001>008-015>018-024>027-034-035-043-044-120800-
   NORTHWEST OHIO

CITY           SKY/WX    TMP DP  RH WIND       PRES   REMARKS
DEFIANCE       FAIR      11   6  81 SW3       30.23F
FINDLAY        FAIR      11   4  73 SW5       30.22F WCI   3
TOLEDO EXPRESS FAIR      11   6  81 W5        30.22F WCI   3
TOLEDO EXEC    FAIR      14   7  73 SW6       30.23F WCI   5
LIMA           FAIR      13   5  70 SW7       30.22F WCI   3
$$

OHZ009>014-019>023-028>033-038-089-120800-
   NORTHEAST OHIO

CITY           SKY/WX    TMP DP  RH WIND       PRES   REMARKS
CLE-HOPKINS    CLOUDY    12   3  67 SW6       30.24F WCI   3
CLE-LAKEFRONT  MOCLDY    16   5  62 S10       30.22F WCI   4
CUY CO. ARPT   NOT AVBL
LORAIN-ELYRIA  CLOUDY    12   4  70 SW5       30.22F WCI   4
ASHTABULA      CLOUDY    10   6  84 S7        30.19F WCI  -1
AKRON-CANTON   CLOUDY    10   2  69 W3        30.20F
WOOSTER        CLOUDY    12   6  77 SW6       30.21F WCI   3
MANSFIELD      CLOUDY    14   7  73 SW6       30.19F WCI   5
YOUNGSTOWN     FAIR       7   1  76 S6        30.19F WCI  -3
$$

OHZ042-051>053-060>062-070>072-077>081-120800-
  SOUTHWEST OHIO

CITY           SKY/WX    TMP DP  RH WIND       PRES   REMARKS
CINC-COVINGTON FAIR      19   7  59 SE3       30.23F
CINC-LUNKEN    FAIR      17  13  84 CALM      30.29F
HAMILTON       FAIR      14  10  84 CALM      30.27F
DAYTON         FAIR      13   7  77 S6        30.24F WCI   4
WRIGHT-PAT AFB CLEAR     10   4  77 E2        30.24F
DAYTON GENERAL FAIR      14   5  67 CALM      30.23F
WILMINGTON     FAIR       7   3  84 CALM      30.23F
$$

OHZ036-037-039>041-045>050-054>059-063>069-073>076-082>088-120800-
  CENTRAL AND SOUTHEAST OHIO

CITY           SKY/WX    TMP DP  RH WIND       PRES   REMARKS
COLUMBUS       FAIR      10   4  76 S5        30.25F WCI   2
OSU AIRPORT    FAIR      11   7  84 CALM      30.23F
BOLTON FIELD   FAIR       4   1  88 MISG      30.24F
RICKENBACK AFB FAIR       6   3  88 CALM      30.25F
NEWARK         FAIR       3  -3  76 CALM      30.24F
MARION         FAIR      13   3  64 SW6       30.22F WCI   4
LANCASTER      FAIR       1  -4  79 CALM      30.25F
ZANESVILLE     FAIR       6   0  76 CALM      30.24F
NEW PHILLY     FAIR       9   4  80 CALM      30.25F
$$




USA.gov is the U.S. government's official web portal to all federal, state and local government web resources and services.